EHI
11 19 26 20 8 2 0 0 0 0 1 3 3 2 1 0 0 0 0 0 0 0 0 0 0 0 0 0 0 0 0 0 0 0 0 0 0 0 0 0 0 0 0
15 22 27 20 9 2 0 0 0 1 2 3 3 2 1 0 0 0 0 0 0 0 0 0 0 0 0 0 0 0 0 0 0 0 0 0 0 0 0 0 0 0 0
18 20 22 18 9 3 1 0 0 1 2 2 1 1 0 0 0 0 0 0 0 0 0 0 0 0 0 0 0 0 0 0 0 0 0 0 0 0 0 0 0 0 0
17 16 16 15 9 3 1 0 0 0 1 1 0 0 0 0 0 0 0 0 0 0 0 0 0 0 0 0 0 0 0 0 0 0 0 0 0 0 0 0 0 0 0
14 13 14 14 10 4 1 0 0 0 0 0 0 0 0 0 0 0 0 0 0 0 0 0 0 0 0 0 0 0 0 0 0 0 0 0 0 0 0 0 0 0 0
11 12 14 13 9 4 1 0 0 0 0 0 0 0 0 0 0 0 0 0 0 0 0 0 0 0 0 0 0 0 0 0 0 0 0 0 0 0 0 0 0 0 0
10 11 11 10 8 4 1 0 0 0 0 0 0 0 0 0 0 0 0 0 0 0 0 0 0 0 0 0 0 0 0 0 0 0 0 0 0 0 0 0 0 0 0
12 11 9 8 6 3 1 0 0 0 0 0 0 0 0 0 0 0 0 0 0 0 0 0 0 0 0 0 0 0 0 0 0 0 0 0 0 0 0 0 0 0 0
13 12 8 5 3 1 0 0 0 0 0 0 0 0 0 0 0 0 0 0 0 0 0 0 0 0 0 0 0 0 0 0 0 0 0 0 0 0 0 0 0 0 0
14 12 7 3 1 0 0 0 0 0 0 0 0 0 0 0 0 0 0 0 0 0 0 0 0 0 0 0 0 0 0 0 0 0 0 0 0 0 0 0 0 0 0
11 8 5 2 1 0 0 0 0 0 0 0 0 0 0 0 0 0 0 0 0 0 0 0 0 0 0 0 0 0 0 0 0 0 0 0 0 0 0 0 0 0 0
7 6 4 2 0 0 0 0 0 0 0 0 0 0 0 0 0 0 0 0 0 0 0 0 0 0 0 0 0 0 0 0 0 0 0 0 0 0 0 0 0 0 0
7 6 4 1 0 0 0 0 0 0 0 0 0 0 0 0 0 0 0 0 0 0 0 0 0 0 0 0 0 0 0 0 0 0 0 0 0 0 0 0 0 0 0
5 5 3 1 0 0 0 0 0 0 0 0 0 0 0 0 0 0 0 0 0 0 0 0 0 0 0 0 0 0 0 0 0 0 0 0 0 0 0 0 0 0 0
2 2 1 0 0 0 0 0 0 0 0 0 0 0 0 0 0 0 0 0 0 0 0 0 0 0 0 0 0 0 0 0 0 0 0 0 0 0 0 0 0 0 0
0 0 0 0 0 0 0 0 0 0 0 0 0 0 0 0 0 0 0 0 0 0 0 0 0 0 0 0 0 0 0 0 0 0 0 0 0 0 0 0 0 0 0
0 0 0 0 0 0 0 0 0 0 0 0 0 0 0 0 0 0 0 0 0 0 0 0 0 0 0 0 0 0 0 0 0 0 0 0 0 0 0 0 0 0 0
0 0 0 0 0 0 0 0 0 0 0 0 0 0 0 0 0 0 0 0 0 0 0 0 0 0 0 0 0 0 0 0 0 0 0 0 0 0 0 0 0 0 0
0 0 1 1 0 0 0 0 0 0 0 0 0 0 0 0 0 0 0 0 0 0 0 0 0 0 0 0 0 0 0 0 0 0 0 0 0 0 0 0 0 0 0
0 0 1 1 1 0 0 0 0 0 0 0 0 0 0 0 0 0 0 0 0 0 0 0 0 0 0 0 0 0 0 0 0 0 0 0 0 0 0 0 0 0 0
0 0 1 1 1 0 0 0 0 0 0 0 0 0 0 0 0 0 0 0 0 0 0 0 0 0 0 0 0 0 0 0 0 0 0 0 0 0 0 0 0 0 0
0 0 0 0 0 0 0 0 0 0 0 0 0 0 0 0 0 0 0 0 0 0 0 0 0 0 0 0 0 0 0 0 0 0 0 0 0 0 0 0 0 0 0
0 0 0 0 0 0 0 0 0 0 0 0 0 0 0 0 0 0 0 0 0 0 0 0 0 0 0 0 0 0 0 0 0 0 0 0 0 0 0 0 0 0 0
0 0 0 0 0 0 0 0 0 0 0 0 0 0 0 0 0 0 0 0 0 0 0 0 0 0 0 0 0 0 0 0 0 0 0 0 0 0 0 0 0 0 0
0 0 0 0 0 0 0 0 0 0 0 0 0 0 0 0 0 0 0 0 0 0 0 0 0 0 0 0 0 0 0 0 0 0 0 0 0 0 0 0 0 0 0
0 0 0 0 0 0 0 0 0 0 0 0 0 0 0 0 0 0 0 0 0 0 0 0 0 0 0 0 0 0 0 0 0 0 0 0 0 0 0 0 0 0 0
Wind_Speed
15 19 22 20 19 17 16 15 15 14 15 17 18 18 18 18 17 17 17 17 17 17 17 17 16 16 16 16 16 15 15 15 15 15 14 13 13 13 12 10 9 12 14
18 21 22 20 19 17 16 15 15 14 15 17 19 19 18 18 18 18 18 18 17 17 16 16 16 16 15 15 15 15 14 14 13 11 9 11 12 13 13 12 12 10 13
19 21 22 20 19 18 17 15 15 15 16 17 19 19 19 19 18 18 18 18 17 17 16 16 15 15 14 14 14 13 13 13 11 7 3 9 11 12 12 12 12 12 12
19 19 19 20 19 19 17 16 15 15 16 17 18 19 19 19 19 18 18 18 17 17 16 15 14 14 13 13 13 12 12 11 8 1 6 9 10 11 11 11 12 12 11
18 18 19 19 19 19 17 16 15 15 17 17 18 18 19 19 19 18 18 17 16 16 15 14 13 13 12 12 12 12 11 10 4 5 9 8 9 10 11 11 11 11 11
18 17 19 18 19 18 17 16 16 15 17 18 18 18 18 18 18 18 17 16 15 15 14 14 13 12 12 11 11 11 10 6 4 8 7 8 8 9 10 10 10 10 10
17 17 19 18 19 18 17 16 15 16 17 18 18 18 18 18 18 17 16 15 15 14 14 13 12 12 11 11 11 10 8 1 5 7 6 7 8 8 8 8 8 9 9
17 16 18 18 17 17 17 16 15 16 17 17 18 18 18 17 17 17 16 15 15 14 13 13 12 12 11 10 10 8 6 1 5 6 5 6 6 6 7 7 7 7 7
16 16 16 17 16 16 15 14 14 14 15 15 16 16 15 15 15 16 15 14 14 13 12 12 11 11 10 9 8 7 5 1 2 4 4 4 4 3 4 4 4 5 5
14 15 16 16 17 16 15 13 12 12 13 13 14 14 13 13 12 13 12 12 12 12 11 11 10 10 9 8 7 6 4 4 3 3 2 4 2 1 1 2 2 2 2
13 13 15 16 16 15 15 14 13 12 12 13 13 14 12 11 12 11 11 10 10 10 10 10 9 9 8 7 6 5 5 2 2 1 1 3 1 1 1 2 1 1 1
14 14 14 15 15 15 12 13 12 11 12 12 12 13 10 9 8 8 11 8 9 9 8 8 8 8 6 5 6 6 3 2 1 1 2 1 3 3 3 4 4 4 3
15 15 14 14 15 14 11 10 8 7 9 10 12 12 9 8 7 7 7 8 8 8 7 8 7 5 4 3 3 3 2 2 1 1 2 1 5 5 5 6 6 6 6
16 16 15 15 14 14 12 10 9 8 7 7 10 11 9 6 7 7 6 7 6 5 5 5 4 5 5 5 4 3 3 3 2 2 1 2 5 6 7 7 7 7 7
15 15 16 15 15 14 12 10 9 9 9 9 8 9 9 7 7 7 6 5 6 5 5 5 5 5 5 4 4 4 4 4 4 3 2 4 5 7 8 8 8 7 7
13 15 15 16 16 14 12 11 9 9 8 8 8 10 10 7 7 6 6 6 5 5 4 5 5 4 4 4 4 4 4 4 4 4 4 3 6 6 7 8 8 8 8
14 15 15 15 15 15 14 13 9 9 9 8 8 10 10 8 8 6 6 6 5 5 6 4 5 4 3 3 4 4 4 5 4 5 4 4 3 5 6 7 8 8 8
12 13 14 12 14 15 13 12 8 8 9 8 7 8 10 9 8 7 5 6 6 5 5 5 4 4 4 4 4 3 3 3 5 5 5 4 4 3 4 4 6 7 6
9 12 13 13 13 13 12 9 8 8 8 7 7 7 9 9 9 7 6 5 6 5 5 5 5 4 4 4 3 3 4 4 4 4 5 4 3 3 3 1 2 3 4
7 10 13 12 13 11 9 7 6 7 7 6 7 7 9 8 9 8 6 7 7 6 5 6 6 5 4 3 3 4 4 3 3 3 3 2 2 2 3 2 1 1 1
7 9 10 12 11 9 7 7 7 7 7 6 6 8 9 8 9 8 6 7 7 7 7 8 6 6 5 3 3 4 4 3 2 1 1 1 1 1 2 2 2 1 1
8 8 9 9 9 10 8 7 5 6 5 6 5 7 8 9 9 7 8 7 7 6 8 7 7 5 4 4 4 3 3 4 3 1 1 0 0 1 2 2 2 2 2
7 8 7 7 7 8 8 5 4 4 3 4 5 5 7 8 8 8 8 8 7 7 6 7 7 8 5 4 4 4 3 3 1 3 2 1 1 0 0 1 2 2 2
7 6 7 7 7 7 8 7 8 6 5 5 5 5 5 7 8 8 8 8 7 6 6 7 7 6 6 4 4 4 4 3 3 2 3 3 2 1 1 1 1 2 2
7 6 7 7 8 8 8 9 8 6 4 3 4 5 5 5 6 7 7 7 7 6 6 6 6 6 5 5 4 4 4 4 5 5 4 3 3 2 1 1 1 1 2
5 5 5 6 7 8 9 9 10 10 9 8 7 6 5 4 4 6 6 6 6 6 6 6 6 7 5 5 4 4 4 4 4 5 6 5 4 2 2 1 1 1 1
Wind_Direction
164 160 157 157 155 154 153 152 152 153 155 154 152 149 145 141 137 134 132 129 127 125 121 116 111 106 102 98 95 92 89 85 82 80 78 76 77 76 70 61 68 74 66
160 158 155 157 156 155 153 151 151 152 154 153 151 148 145 141 138 136 134 132 129 126 122 117 112 108 103 99 96 94 92 89 86 83 90 90 75 73 69 61 55 67 66
158 156 156 157 156 155 152 150 151 155 155 152 151 149 145 142 140 138 136 134 131 127 122 117 113 109 106 102 99 97 95 91 88 88 110 92 84 73 71 68 67 67 65
158 158 159 155 156 155 153 151 151 155 156 153 152 149 146 144 141 139 137 135 131 126 121 116 113 111 110 107 103 101 98 94 89 108 85 82 83 76 73 71 68 66 64
159 160 152 156 157 155 154 153 153 154 156 154 151 148 146 144 142 141 139 135 130 126 123 120 117 114 114 112 107 103 101 98 105 91 84 82 81 77 73 70 67 65 63
162 159 152 159 157 156 154 154 155 154 154 152 149 147 146 144 143 141 137 133 130 128 127 124 121 118 117 115 111 107 105 115 142 87 85 81 82 81 77 74 70 66 62
164 160 155 160 158 157 156 156 157 155 153 150 148 147 146 144 142 140 137 137 135 134 131 128 125 121 120 118 114 111 107 94 91 93 87 82 79 80 80 75 71 67 63
165 162 157 159 159 158 157 157 158 156 154 151 148 147 146 144 142 142 142 142 141 139 135 131 128 125 123 120 116 115 117 194 107 94 89 85 75 79 80 76 71 68 65
168 165 161 162 161 158 156 156 156 155 153 150 147 144 141 140 142 145 146 147 145 142 137 133 129 127 124 123 122 122 116 321 102 93 89 83 72 76 83 85 78 73 69
172 170 165 166 166 163 160 155 152 150 148 144 138 132 130 134 140 144 149 147 146 143 138 135 131 127 124 124 127 129 144 221 106 114 106 86 57 73 99 107 101 89 80
176 175 170 169 169 166 162 155 153 147 142 140 133 128 140 151 151 155 146 140 142 142 141 138 133 127 127 127 126 143 197 206 125 101 94 67 294 264 233 212 208 203 185
180 181 175 172 170 166 159 161 164 162 159 164 156 155 161 157 154 151 129 134 136 137 140 136 132 146 182 159 150 191 205 198 202 173 107 76 281 269 257 244 234 234 231
184 185 180 174 171 167 163 164 163 164 166 167 163 165 161 156 153 156 155 152 155 161 162 150 171 180 188 175 188 196 199 233 240 225 154 192 279 275 267 259 250 242 238
188 185 182 176 173 172 167 166 165 164 166 165 167 169 166 164 168 165 170 168 171 177 174 183 192 181 191 193 206 211 209 232 248 258 172 209 274 278 275 271 264 256 249
194 187 184 180 175 175 171 168 170 169 169 167 168 175 174 171 173 169 172 173 179 177 182 190 197 191 200 203 213 232 237 241 252 257 232 206 256 274 277 274 270 267 261
197 190 186 183 178 176 175 172 173 172 170 169 172 179 180 177 174 175 175 178 180 184 189 196 199 200 207 216 225 237 252 258 261 267 278 238 225 252 269 270 270 271 270
199 195 188 183 180 180 179 177 174 175 174 174 175 181 184 184 181 181 183 183 184 186 189 198 197 211 216 223 233 241 255 265 272 274 278 286 267 230 243 264 271 272 272
197 198 190 182 182 183 181 178 175 176 176 177 177 182 188 189 188 188 190 193 189 188 194 198 202 207 212 225 236 239 252 263 272 283 283 279 284 284 245 243 271 274 271
199 200 190 184 182 182 178 176 173 173 177 177 180 185 190 193 194 198 200 197 192 195 199 200 210 214 216 224 242 256 262 266 275 279 282 292 294 292 292 223 242 271 276
209 201 191 185 181 175 169 168 167 175 180 181 186 190 191 195 198 203 203 203 196 198 202 204 206 211 226 231 242 256 262 267 271 281 294 298 314 318 308 311 253 127 98
212 205 194 187 175 171 169 172 172 180 182 185 191 194 193 196 199 203 205 206 203 207 206 207 205 209 214 220 237 246 239 234 244 246 290 308 44 25 12 2 355 344 87
205 204 192 191 176 178 181 178 174 171 180 183 185 192 196 199 200 203 208 209 207 210 209 207 204 208 206 205 228 246 246 205 179 185 158 92 61 75 52 23 18 6 346
203 200 190 189 182 186 182 166 154 154 155 173 184 190 199 199 201 202 207 211 210 209 207 206 208 214 206 197 224 244 249 252 233 190 179 201 181 137 51 17 3 358 348
188 189 190 188 189 188 181 183 185 188 196 192 185 186 191 198 201 201 203 206 204 206 210 209 210 215 211 200 200 231 257 277 252 244 193 194 205 257 299 333 325 338 342
170 177 190 188 193 193 191 192 194 199 208 197 184 183 193 197 200 197 197 197 200 203 206 201 197 204 211 209 201 197 213 227 239 252 256 236 229 226 254 295 301 317 349
147 161 177 180 188 190 195 199 201 201 200 200 197 195 196 191 195 198 194 195 195 193 194 194 192 197 202 203 202 206 211 215 213 227 248 258 263 242 228 249 266 305 354